sat.trackr.live / text

‹ back to catalog

STARLINK-32566

NORAD 61958 · 2024-209V

PAYLOAD ACTIVE UNKNOWN

§ Identity

Operator
Country
US
Launch date
2024-11-14
Launch site
AFWTR
Launch vehicle
Mass (kg)
RCS (m²)

Purposes: comms

External: N2YO · Heavens-Above · Gunter

§ Orbital elements

Epoch: 2026-05-25T03:53:59.313120Z

Period
93.37 min
Inclination
53.1587°
Eccentricity
0.0001035
Mean motion
15.42192272 rev/d
Perigee alt
438.9 km
Apogee alt
440.3 km
Semi-major
6,817.8 km
B*
8.8186e-4
RAAN
144.4647°
Arg perigee
87.9843°
Mean anomaly
272.1282°
Rev number
8,666

§ Raw data

STARLINK-325661 61958U 24209V   26145.16249205  .00038196  00000+0  88186-3 0  99932 61958  53.1587 144.4647 0001035  87.9843 272.1282 15.42192272 86663

JSON: /api/v1/satellites/61958 · /tle

For live sub-satellite position, see the globe view (requires WebGL).

§ Visibility from observer

Set your observer location to see the next 7 days of passes ≥ 10°. The values pass through the URL so the page stays shareable.

No JS? Fill the form by hand. The geolocation button needs JavaScript.